Theta_e
320 341 344 342 339 338 341 343 343 337 340 343 342 341 341 344 341 342 350 348 345 338 332 333 331 327 321 319 322 324 326 325 325 325 333 331 330 330 327 327 330 332 334 335 336 336 334 334 333
322 339 340 340 339 341 339 341 335 335 341 343 343 340 339 348 350 351 350 351 346 339 329 332 330 326 319 317 319 323 325 325 324 323 330 330 332 332 331 328 327 329 331 333 335 333 331 333 332
328 339 340 341 343 343 342 334 333 335 344 344 343 342 340 349 350 350 351 347 341 335 329 330 328 323 317 316 317 321 323 324 323 322 327 331 331 329 329 329 328 329 330 332 332 330 330 331 333
338 339 342 340 342 339 340 339 338 337 338 338 342 341 341 343 344 351 352 344 337 330 330 330 327 319 316 315 316 319 321 322 321 323 327 329 324 323 322 323 324 325 326 327 328 332 335 336 338
338 334 337 338 338 337 336 337 337 336 343 344 341 342 340 344 343 345 347 345 338 327 327 326 322 317 315 314 315 318 320 320 318 324 326 324 321 320 322 323 324 326 328 332 333 332 336 339 338
330 329 331 336 339 336 336 338 336 337 341 342 342 341 341 343 342 347 345 338 326 319 318 318 316 315 314 314 315 317 318 318 319 324 324 321 322 328 330 332 333 333 333 332 331 331 335 339 338
329 324 331 337 338 338 337 333 338 340 341 342 342 339 344 347 344 342 340 339 326 335 334 319 315 314 314 314 315 316 317 317 321 323 322 323 330 331 332 332 332 331 326 322 322 324 333 340 340
332 324 329 338 339 338 335 336 337 341 342 343 340 338 336 344 343 341 340 340 340 340 335 329 315 314 313 314 315 316 317 317 321 322 323 330 332 333 333 332 330 325 320 319 322 326 334 340 339
330 322 323 328 338 338 337 332 334 337 344 341 343 336 335 341 341 342 342 341 342 338 334 324 314 313 313 313 315 316 316 319 321 322 329 333 333 331 328 326 326 322 326 327 325 331 337 339 337
323 319 322 325 335 336 337 334 336 339 342 342 341 337 336 336 338 340 341 342 339 336 332 318 314 313 313 314 315 315 317 319 321 327 333 332 333 332 326 327 330 326 331 332 332 333 335 336 335
323 323 323 327 329 336 330 331 337 339 340 341 338 336 336 337 338 339 341 336 334 333 331 326 313 313 313 314 315 316 318 320 323 332 333 343 341 339 338 334 335 329 334 336 337 335 336 337 337
322 323 324 326 328 335 327 329 337 338 338 338 337 338 337 337 337 336 336 335 334 333 331 329 319 313 313 314 315 317 319 321 328 332 337 343 342 342 344 336 335 330 338 338 334 333 333 337 333
321 322 325 326 330 328 329 329 328 334 339 339 340 338 337 338 336 336 335 335 333 332 330 329 327 316 314 315 316 319 320 323 334 338 342 342 341 342 345 340 330 333 337 339 339 333 333 333 333
322 322 323 326 327 328 327 327 330 338 340 340 339 338 338 337 337 336 335 334 332 331 329 328 328 324 320 317 317 319 320 325 332 344 344 342 345 342 342 339 333 335 335 336 340 334 334 333 333
323 321 320 324 326 325 327 326 325 340 340 339 339 338 337 336 336 336 334 334 333 330 328 328 329 327 327 328 326 319 322 328 331 341 345 341 341 343 337 336 335 336 335 336 339 335 335 334 333
321 318 320 321 323 327 326 324 330 340 340 339 338 338 338 337 335 335 332 333 332 330 328 328 329 329 327 329 329 328 335 337 335 335 341 337 335 341 342 337 337 337 336 334 334 336 335 335 335
315 319 319 319 322 322 324 323 325 338 338 337 337 337 337 337 335 335 333 332 331 330 328 327 329 329 328 331 329 330 338 339 341 342 343 340 339 339 343 343 341 339 337 335 333 335 334 335 335
318 319 318 318 319 321 320 323 326 338 337 336 336 336 336 336 334 333 333 331 330 329 328 327 328 330 330 329 330 333 339 339 341 342 344 345 344 342 341 340 343 340 340 337 334 331 333 334 335
317 319 319 318 320 321 319 322 324 333 337 336 337 335 335 336 336 332 332 330 329 328 327 327 327 330 330 331 332 334 338 343 341 343 344 345 346 345 345 342 342 345 342 340 337 335 331 334 336
317 319 319 318 320 322 321 323 320 321 322 325 328 337 336 335 335 333 331 330 329 328 327 327 327 327 330 330 330 331 334 341 343 343 344 345 344 346 345 344 341 346 346 344 341 336 331 332 334
318 319 320 319 319 320 322 320 321 321 323 324 327 329 337 337 337 335 331 329 329 328 327 327 327 327 327 329 330 331 330 333 340 343 343 345 346 345 344 343 344 342 342 344 343 341 335 331 332
321 321 322 323 319 319 321 320 319 320 321 320 333 337 333 337 337 335 330 329 329 329 328 328 328 327 327 328 328 329 328 329 328 329 332 338 345 345 345 344 343 343 342 339 342 343 341 334 330
320 320 322 324 321 319 320 319 318 320 321 327 336 339 338 336 336 334 331 329 329 328 328 328 328 328 328 328 329 329 331 332 331 331 330 331 335 341 344 344 346 345 343 341 339 341 343 340 335
321 322 319 318 317 319 319 320 319 326 328 333 338 339 341 341 341 339 337 337 340 339 334 329 328 328 328 328 329 330 330 330 332 332 334 334 333 335 339 341 342 347 346 343 341 338 339 343 340
319 317 318 321 320 321 322 328 335 334 334 335 337 337 339 340 339 338 339 341 342 343 345 347 341 333 331 330 331 333 335 336 338 338 337 336 335 335 337 340 341 341 345 345 342 342 340 338 342
320 318 318 323 324 324 326 335 338 333 333 332 333 332 333 338 338 336 335 336 336 334 336 337 339 342 344 342 338 339 337 338 340 341 341 339 336 335 336 336 338 341 341 341 341 341 341 341 339
324 321 318 320 322 324 330 337 337 333 332 331 330 329 327 327 328 327 327 327 330 330 327 327 327 327 326 326 328 330 330 333 338 340 340 345 347 348 348 343 335 334 336 340 340 341 340 341 342
323 323 323 320 326 328 327 333 338 335 332 330 328 327 327 327 326 326 326 325 325 325 326 326 325 324 323 322 322 322 322 322 322 323 325 333 342 345 348 348 348 345 338 336 339 342 341 340 341
324 321 323 320 321 324 328 339 335 334 331 330 328 328 327 327 326 325 324 324 323 323 322 322 322 322 321 320 319 318 317 319 319 318 318 318 321 331 339 344 346 344 344 343 341 341 341 342 341
325 326 322 323 326 325 323 330 332 330 329 329 325 321 323 326 324 324 323 323 324 324 323 322 321 320 319 316 315 316 317 318 315 316 317 317 317 318 319 327 334 343 344 343 342 341 342 344 344
Wind_Speed
2 3 3 2 3 4 4 6 3 3 6 15 19 16 9 6 0 3 19 30 27 28 26 24 21 18 18 19 20 19 18 17 18 20 21 20 19 19 19 18 18 16 15 15 14 12 10 8 6
4 4 1 1 4 3 4 5 4 4 20 30 21 15 9 3 7 17 35 22 27 26 25 24 21 19 18 19 19 19 18 17 18 20 20 19 18 17 16 16 15 14 13 13 13 10 8 6 5
8 0 2 4 3 1 4 3 9 4 21 14 7 12 6 6 16 33 26 28 29 27 26 24 21 19 18 19 20 19 18 18 18 20 19 18 17 15 15 14 14 13 12 12 11 8 8 5 5
7 1 1 3 5 6 6 14 19 7 16 14 19 6 10 7 23 23 28 25 25 26 25 23 21 19 18 18 19 19 19 18 19 20 19 17 15 14 14 14 13 13 12 11 12 9 9 6 6
4 3 4 5 7 6 5 17 18 5 5 11 9 4 5 16 15 25 25 19 19 26 23 22 20 19 18 18 19 19 19 19 20 20 18 15 14 15 15 14 14 13 12 12 12 9 10 8 8
1 3 3 3 8 9 8 19 8 5 15 17 16 10 5 18 23 24 19 14 20 18 17 18 19 19 18 18 19 19 19 20 21 20 17 15 15 15 14 13 12 11 10 9 10 8 10 11 10
4 4 5 6 3 7 5 9 19 16 13 6 23 6 17 28 24 22 16 16 21 13 11 13 17 19 18 19 20 20 20 21 20 18 16 15 14 14 13 12 11 10 9 10 11 11 12 14 12
4 3 4 5 5 6 8 8 31 28 5 22 19 7 13 28 26 24 21 19 18 14 7 12 18 19 20 20 21 21 21 21 19 17 16 15 13 12 11 10 10 10 11 14 14 14 15 12 9
8 2 4 6 7 6 6 3 11 13 23 4 6 22 31 33 31 29 28 24 20 15 8 12 16 18 19 20 21 22 21 21 19 18 16 14 13 13 11 11 11 12 19 22 21 21 19 16 10
8 5 9 13 9 7 10 7 16 9 19 12 17 23 36 30 28 27 31 27 23 15 9 12 16 18 20 21 22 22 22 21 19 18 17 17 15 14 13 12 12 15 25 25 24 21 16 13 9
6 8 4 21 25 30 9 9 11 21 1 25 35 41 36 33 29 27 30 23 15 11 11 9 15 18 20 22 22 22 22 21 20 19 20 17 15 13 12 9 10 17 21 19 18 16 11 7 3
5 12 16 27 32 17 10 7 15 21 15 28 31 39 40 36 33 29 29 24 21 17 12 10 11 18 21 22 22 22 22 21 21 20 20 16 12 10 9 8 7 18 18 16 14 14 13 5 4
6 10 15 18 23 10 13 7 5 13 25 32 36 37 39 35 34 31 24 23 21 20 17 11 10 17 21 22 21 21 21 21 21 22 20 15 12 9 9 9 9 14 13 13 12 13 10 8 6
11 18 23 4 2 4 6 8 10 17 36 36 38 40 38 35 35 32 29 29 27 23 19 16 13 16 20 19 19 20 20 21 23 22 19 15 13 9 10 8 12 16 12 11 11 15 11 8 11
11 6 10 4 3 4 2 8 7 33 38 39 40 41 38 34 35 35 31 35 32 27 22 20 18 15 21 18 15 18 19 20 22 24 21 18 18 16 14 14 13 17 14 11 14 16 16 11 12
6 4 5 8 11 9 7 9 5 39 39 35 38 40 40 36 37 38 33 35 36 30 27 24 22 19 21 20 17 18 21 21 21 23 21 19 19 17 11 12 14 17 15 13 16 18 20 18 17
6 2 6 10 8 5 4 10 7 38 40 36 35 37 41 37 35 37 35 35 37 35 30 27 27 23 20 21 22 19 21 19 18 18 19 19 20 19 15 15 14 17 17 15 16 19 22 20 19
5 3 4 5 9 2 5 12 4 41 31 32 40 37 40 40 38 38 39 36 36 35 30 26 27 27 24 23 24 21 21 19 18 19 20 21 23 22 21 22 18 20 18 22 21 21 22 23 21
4 0 4 6 6 3 5 3 2 20 21 21 25 30 41 41 36 38 40 37 37 37 32 31 28 30 28 28 29 28 28 24 26 24 24 24 25 29 25 24 25 24 22 24 27 28 29 28 25
7 6 6 7 7 2 6 5 6 5 8 17 24 39 42 39 36 41 44 41 38 38 33 30 30 28 32 29 29 29 31 31 29 29 28 27 27 29 28 27 27 30 28 25 27 29 29 29 28
5 7 6 8 5 4 2 7 5 9 10 14 12 16 38 42 43 44 47 44 38 37 35 31 29 29 29 29 28 27 27 33 35 34 34 34 29 30 32 31 31 28 31 33 30 30 31 33 32
4 4 2 5 2 3 4 5 6 7 9 9 15 17 25 46 40 38 43 43 40 36 31 31 28 28 29 30 31 32 32 33 35 38 37 35 38 34 33 36 36 35 33 34 35 33 33 35 38
8 2 3 1 3 3 7 3 8 6 8 6 14 30 25 23 25 27 25 31 29 30 34 36 35 31 30 34 35 33 34 35 35 33 34 35 36 40 41 37 38 40 40 39 37 37 38 40 40
5 5 7 5 3 4 6 5 5 7 6 9 22 29 37 38 33 29 25 21 13 9 16 32 37 34 36 36 35 35 36 37 36 35 36 36 37 38 41 42 44 45 45 43 43 40 41 43 41
7 7 4 4 4 5 4 7 4 6 13 13 23 29 34 40 39 36 33 28 21 18 14 7 14 30 32 33 32 32 32 32 31 32 36 37 39 41 43 42 48 50 51 49 49 48 45 45 47
6 8 6 5 3 5 4 5 3 5 24 29 30 30 37 40 39 38 34 28 24 21 19 20 22 22 11 6 8 17 26 28 29 33 35 39 42 45 46 46 48 50 51 54 53 51 53 48 49
2 3 7 6 1 3 1 4 4 4 14 25 27 33 33 39 38 35 31 27 21 18 18 16 14 13 12 10 5 7 10 10 14 15 18 25 30 33 34 42 51 51 48 48 55 56 55 55 54
4 4 3 3 4 3 4 3 6 5 12 14 19 27 31 31 33 30 26 21 18 14 10 7 6 7 10 12 13 14 15 17 18 19 20 19 18 20 28 32 32 40 49 49 48 52 55 58 61
5 4 6 5 4 5 2 4 3 5 9 13 17 25 24 23 26 24 22 18 14 13 12 12 8 8 12 16 20 23 24 25 24 25 25 24 22 22 22 25 30 32 36 43 47 50 52 55 60
3 2 4 5 3 0 4 3 5 6 12 21 23 31 32 27 24 19 15 10 7 8 10 12 13 17 19 21 22 24 25 27 33 35 33 32 30 28 28 27 24 26 28 32 39 44 50 53 57
Wind_Direction
159 131 158 241 31 63 284 256 263 75 63 81 84 90 113 75 144 179 146 160 170 170 165 164 164 162 160 156 154 152 149 141 136 137 134 130 126 125 126 127 127 126 123 118 113 109 99 92 80
177 149 298 295 68 29 277 278 232 107 128 99 84 94 66 78 126 147 153 170 174 172 167 166 166 166 164 160 157 155 150 144 143 141 137 131 126 123 124 126 128 128 125 122 117 111 100 99 79
189 51 272 127 120 169 285 292 336 44 130 112 105 68 83 117 137 144 163 162 169 170 167 167 169 169 167 162 161 157 152 150 148 144 138 131 127 127 129 129 130 130 129 127 120 115 108 113 92
169 239 67 70 279 236 205 277 306 289 92 88 119 63 91 149 145 157 157 160 169 168 168 169 171 169 167 165 163 158 156 154 151 147 141 135 132 130 130 132 133 131 129 123 114 115 112 124 104
136 13 27 345 298 265 255 260 279 262 85 99 108 92 77 158 167 155 151 158 172 168 169 172 172 170 169 168 165 162 159 157 153 149 143 137 132 128 127 124 122 119 116 113 109 113 119 137 118
160 42 65 243 258 292 280 280 240 160 120 117 98 96 87 149 148 148 144 136 164 160 167 175 174 173 173 171 168 164 162 159 155 150 143 135 130 127 124 121 118 116 116 114 114 132 133 134 130
141 124 191 258 298 338 320 27 137 143 152 153 134 107 142 148 151 147 142 144 156 147 151 175 180 177 175 174 170 166 164 159 155 148 142 135 131 128 127 125 121 115 111 105 112 134 139 137 127
200 95 150 248 245 263 254 278 138 145 170 145 134 147 162 160 161 161 159 164 163 158 153 185 184 182 178 175 171 167 163 159 153 148 142 137 133 130 129 123 114 103 102 111 120 129 134 146 129
218 24 253 244 218 232 236 223 125 123 137 155 194 156 152 161 167 169 165 167 168 165 165 188 190 184 178 175 172 167 163 159 154 149 144 138 133 127 124 120 113 107 117 118 123 134 140 148 143
166 164 237 218 208 245 232 216 134 111 115 92 119 132 148 168 175 175 172 173 173 164 165 183 191 184 178 177 174 167 164 161 156 151 146 137 133 128 122 122 114 118 133 122 129 134 138 152 156
199 217 224 267 267 236 263 184 131 122 267 156 147 151 157 167 179 183 180 182 182 178 170 151 186 184 179 176 173 170 167 163 159 156 147 145 146 132 116 118 121 134 138 131 129 127 137 155 181
252 258 258 267 268 214 167 161 152 166 184 164 158 158 160 169 183 187 187 188 183 185 182 151 165 183 176 174 175 172 170 165 165 161 160 162 159 141 147 139 119 148 138 140 139 126 132 170 203
214 275 293 276 256 239 176 199 153 183 172 161 162 166 167 175 179 191 202 202 197 191 184 177 169 174 173 173 175 176 174 169 164 161 163 176 175 165 166 188 172 167 160 157 155 150 177 181 174
288 304 302 252 214 233 200 233 135 158 163 162 167 173 171 176 184 187 197 206 202 199 192 189 189 177 170 169 179 181 180 171 173 170 170 185 191 193 194 190 195 179 174 176 174 168 189 184 165
301 336 329 319 347 298 157 312 170 164 164 166 176 177 176 177 186 193 195 201 205 204 196 196 200 192 181 170 176 187 182 179 180 175 179 194 205 199 194 185 200 195 184 197 187 174 176 206 190
348 52 7 299 351 300 72 280 109 164 162 175 184 185 184 179 189 197 195 201 204 204 200 197 203 205 198 188 191 189 179 175 174 177 189 206 214 219 214 193 192 194 193 198 195 183 192 208 224
7 286 324 320 335 274 137 264 234 176 174 180 184 189 190 190 193 200 200 201 203 207 201 201 202 211 208 204 206 204 193 190 190 190 191 205 211 223 225 217 214 212 211 212 214 191 205 216 213
259 323 295 284 292 277 319 239 248 182 177 178 194 189 194 196 199 198 202 203 203 207 207 206 209 210 215 206 209 214 210 215 213 221 216 215 219 220 234 241 234 229 220 217 221 215 222 224 220
222 312 283 269 264 269 301 299 249 171 181 183 200 196 196 204 203 199 202 204 203 203 206 206 211 212 216 213 211 212 214 216 220 222 225 226 231 228 232 238 242 228 232 224 225 227 221 218 219
241 254 265 278 273 57 329 307 293 252 209 219 194 202 202 203 202 203 202 205 203 205 208 211 213 216 219 224 226 227 223 219 219 220 223 232 234 230 236 237 239 233 235 236 233 229 220 220 221
227 186 223 232 323 326 327 328 330 302 302 289 95 181 198 198 202 205 201 203 200 204 208 215 221 218 225 225 225 230 234 232 229 227 226 226 231 235 240 244 243 246 242 244 243 239 232 223 220
186 214 300 332 27 243 38 270 294 294 306 57 81 105 183 201 201 198 197 199 200 206 211 219 227 229 231 232 231 234 234 231 234 234 237 233 231 234 238 243 246 246 249 248 245 245 244 233 228
228 205 246 206 61 64 322 38 270 347 24 96 82 80 98 156 167 169 174 189 195 206 212 215 221 230 237 236 238 242 246 249 249 250 249 246 243 241 243 246 245 246 247 252 251 247 245 239 231
141 64 39 44 57 6 258 135 338 341 137 119 86 81 86 104 114 126 132 145 141 166 217 226 223 225 231 236 241 244 250 257 257 262 262 262 259 254 250 250 251 250 245 253 256 255 253 251 241
79 60 7 357 15 224 67 68 307 357 67 81 93 85 89 97 100 101 105 110 110 104 96 102 205 231 235 239 245 251 254 259 263 268 273 269 266 260 256 253 254 254 251 253 259 259 259 254 251
182 144 151 190 201 257 6 140 140 97 84 86 87 92 93 98 101 100 101 103 99 92 89 90 85 82 104 181 259 276 265 264 269 272 272 268 265 265 264 264 262 259 257 255 255 257 260 260 258
194 178 180 108 321 74 176 63 52 106 89 86 90 92 91 99 102 98 96 96 104 97 81 74 64 57 38 32 5 336 330 319 305 309 315 295 281 275 271 269 264 265 265 259 256 255 258 261 260
138 171 68 9 127 182 274 181 185 158 111 101 97 94 97 97 98 99 95 92 90 90 92 77 41 5 349 341 333 325 320 314 310 310 308 298 297 298 285 271 268 270 266 264 262 260 256 256 259
352 357 60 116 116 159 155 269 215 150 124 111 108 105 99 98 96 95 91 89 85 80 70 67 48 354 334 331 325 318 312 308 303 303 306 309 301 297 289 289 280 269 271 272 265 262 261 257 257
166 9 118 113 237 95 138 291 358 145 119 96 91 87 87 96 99 91 82 72 45 14 348 342 340 337 329 324 316 308 308 303 297 301 304 305 303 304 300 296 290 282 277 276 278 271 268 264 260